Location: Kuffner-Sternwarte
(48.2130°N, 16.2960°E)
Time: 16:27:49
(UTC+02:00)

COROT - Pass Details

Date: 12 May 2026
Orbit: 594 x 855 km, 90.1° (Epoch: 21 May)

Event Time Altitude Azimuth Distance (km) Brightness Sun altitude
Rises 22:24:31 0° 14° (NNE) 3,365 9.9 -15.9°
Reaches altitude 10° 22:27:49 10° 34° (NE) 2,385 8.8 -16.2°
Maximum altitude 22:31:15 17° 74° (ENE) 1,883 7.8 -16.5°
Enters shadow 22:32:56 15° 97° (E) 1,980 7.8 -16.7°
